Minot, ND

11:39 AM CDT on September 24, 2017 (GMT -0500)
Minot International

Weather History for KMOT - October, 2012

Change the Weather History Date:

Tuesday, October 23, 2012

  Actual Average Record
Temperature  
Mean Temperature 41 °F 41 °F  
Max Temperature 47 °F 51 °F 78 °F (1963)
Min Temperature 34 °F 31 °F -1 °F (1919)
Degree Days  
Heating Degree Days 24 24  
Month to date heating degree days 482 431  
Since 1 July heating degree days 692 751  
Cooling Degree Days 0 0  
Month to date cooling degree days 0 0  
Year to date cooling degree days 594 444  
Moisture  
Dew Point 40 °F    
Average Humidity 90    
Maximum Humidity 100    
Minimum Humidity 79    
Precipitation  
Precipitation 0.19 in 0.02 in 0.34 in (2015)
Month to date precipitation 1.87 0.92  
Year to date precipitation 12.80 15.82  
Sea Level Pressure  
Sea Level Pressure 29.72 in    
Wind  
Wind Speed 9 mph (NNE)    
Max Wind Speed 25 mph    
Max Gust Speed 31 mph    
Visibility 5 miles    
Events Fog , Rain , Thunderstorm    
T = Trace of Precipitation, MM = Missing Value Source: NWS Daily Summary

Daily Weather History Graph

Daily Weather History Graph

Search for Another Location

Airport or City:

Trip Planner

Search our weather history database for the weather conditions in past years. The results will help you decide how hot, cold, wet, or windy it might be!

Date:

Astronomy

Oct. 23, 2012 Rise Set
Actual Time 8:17 AM CDT 6:40 PM CDT
Civil Twilight 7:45 AM CDT 7:12 PM CDT
Nautical Twilight 7:09 AM CDT 7:48 PM CDT
Astronomical Twilight 6:33 AM CDT 8:24 PM CDT
Moon 3:49 PM CDT (10/23) 1:44 AM CDT (10/23)
Length of Visible Light 11h 26m
Length of Day
10h 22m
Waxing Gibbous, 67% of the Moon is Illuminated
Oct 23
Waxing Gibbous
Oct 29
Full
Nov 6
Last Quarter
Nov 13
New
Nov 20
First Quarter

Hourly Weather History & Observations

Time (CDT) Temp. Windchill Dew Point Humidity Pressure Visibility Wind Dir Wind Speed Gust Speed Precip Events Conditions
12:54 AM 37.9 °F 32.7 °F 37.0 °F 97% 29.87 in 8.0 mi ENE 6.9 mph - 0.02 in Rain Light Rain
1:49 AM 37.4 °F 30.8 °F 37.4 °F 100% 29.78 in 5.0 mi NE 9.2 mph - 0.06 in Rain Light Rain
1:54 AM 37.9 °F 32.1 °F 37.0 °F 97% 29.82 in 5.0 mi NE 8.1 mph - 0.06 in   Overcast
2:54 AM 39.0 °F 33.4 °F 37.9 °F 96% 29.81 in 7.0 mi NE 8.1 mph - 0.01 in Rain Light Rain
3:54 AM 39.0 °F 32.3 °F 37.9 °F 96% 29.77 in 8.0 mi ENE 10.4 mph - 0.02 in   Overcast
4:54 AM 39.0 °F 32.8 °F 39.0 °F 100% 29.75 in 4.0 mi East 9.2 mph - N/A   Overcast
5:13 AM 39.2 °F 33.0 °F 39.2 °F 100% 29.69 in 3.0 mi ENE 9.2 mph - N/A Thunderstorm Overcast
5:24 AM 39.2 °F 32.5 °F 39.2 °F 100% 29.69 in 2.5 mi East 10.4 mph - N/A Thunderstorm Overcast
5:54 AM 39.9 °F 33.4 °F 39.0 °F 97% 29.72 in 2.5 mi East 10.4 mph - N/A   Overcast
6:03 AM 39.2 °F 33.0 °F 39.2 °F 100% 29.68 in 3.0 mi East 9.2 mph - N/A   Overcast
6:32 AM 39.2 °F 33.0 °F 39.2 °F 100% 29.66 in 2.5 mi East 9.2 mph - N/A Rain Heavy Rain
6:42 AM 39.2 °F 32.5 °F 39.2 °F 100% 29.66 in 4.0 mi East 10.4 mph - 0.03 in   Overcast
6:54 AM 39.2 °F 32.0 °F 39.2 °F 100% 29.67 in 3.0 mi East 11.5 mph - N/A Rain Rain
7:54 AM 41.0 °F 36.4 °F 41.0 °F 100% 29.70 in 4.0 mi East 6.9 mph - 0.01 in   Overcast
8:12 AM 41.0 °F 37.1 °F 41.0 °F 100% 29.66 in 2.0 mi East 5.8 mph - N/A   Overcast
8:23 AM 41.0 °F 37.1 °F 41.0 °F 100% 29.65 in 1.8 mi East 5.8 mph - N/A   Overcast
8:45 AM 42.8 °F 39.3 °F 41.0 °F 93% 29.66 in 2.5 mi East 5.8 mph - N/A   Overcast
8:54 AM 42.1 °F 37.7 °F 41.0 °F 96% 29.70 in 2.5 mi East 6.9 mph - 0.00 in Rain Light Rain
9:05 AM 42.8 °F 39.3 °F 42.8 °F 100% 29.66 in 3.0 mi ESE 5.8 mph - N/A Rain Light Rain
9:12 AM 42.8 °F 39.3 °F 42.8 °F 100% 29.66 in 0.2 mi East 5.8 mph - 0.00 in Fog , Rain Light Rain
9:54 AM 43.0 °F 39.5 °F 42.1 °F 97% 29.70 in 0.2 mi ESE 5.8 mph - 0.01 in Fog Fog
10:01 AM 42.8 °F 39.3 °F 42.8 °F 100% 29.65 in 7.0 mi ESE 5.8 mph - N/A   Overcast
10:41 AM 42.8 °F 41.1 °F 42.8 °F 100% 29.64 in 2.0 mi SE 3.5 mph - N/A   Overcast
10:54 AM 44.1 °F 42.5 °F 43.0 °F 96% 29.69 in 2.0 mi ESE 3.5 mph - N/A   Overcast
11:34 AM 44.6 °F - 44.6 °F 100% 29.64 in 1.5 mi Calm Calm - N/A   Overcast
11:54 AM 44.1 °F - 44.1 °F 100% 29.69 in 1.5 mi Calm Calm - N/A   Overcast
12:54 PM 45.0 °F 42.6 °F 44.1 °F 97% 29.70 in 1.5 mi WSW 4.6 mph - N/A   Overcast
1:19 PM 44.6 °F 41.4 °F 44.6 °F 100% 29.65 in 0.5 mi West 5.8 mph - N/A Fog Fog
1:54 PM 46.0 °F 41.9 °F 45.0 °F 96% 29.67 in 0.5 mi West 8.1 mph - N/A Fog Fog
2:01 PM 46.4 °F 42.9 °F 44.6 °F 93% 29.63 in 2.5 mi WNW 6.9 mph - N/A   Overcast
2:16 PM 46.4 °F 42.4 °F 44.6 °F 93% 29.63 in 2.5 mi WNW 8.1 mph - N/A   Mostly Cloudy
2:30 PM 46.4 °F 41.5 °F 44.6 °F 93% 29.64 in 5.0 mi West 10.4 mph - N/A   Overcast
2:54 PM 46.9 °F - 44.1 °F 90% 29.69 in 8.0 mi West 12.7 mph - N/A   Overcast
3:22 PM 46.4 °F 40.7 °F 42.8 °F 87% 29.67 in 5.0 mi West 12.7 mph - 0.00 in Rain Light Rain
3:54 PM 46.0 °F 39.9 °F 43.0 °F 89% 29.70 in 8.0 mi West 13.8 mph - 0.04 in Rain Light Rain
4:18 PM 44.6 °F 39.2 °F 42.8 °F 93% 29.65 in 10.0 mi WNW 10.4 mph - 0.00 in   Overcast
4:54 PM 45.0 °F 40.1 °F 42.1 °F 90% 29.70 in 10.0 mi WNW 9.2 mph - 0.00 in   Mostly Cloudy
5:39 PM 44.6 °F 37.2 °F 39.2 °F 81% 29.70 in 10.0 mi West 17.3 mph 24.2 mph N/A   Overcast
5:54 PM 43.0 °F 34.5 °F 39.0 °F 86% 29.75 in 10.0 mi West 19.6 mph - N/A   Overcast
6:12 PM 42.8 °F 35.1 °F 37.4 °F 81% 29.72 in 10.0 mi West 16.1 mph - N/A   Scattered Clouds
6:54 PM 39.9 °F 31.8 °F 37.0 °F 89% 29.78 in 10.0 mi West 15.0 mph - N/A   Partly Cloudy
7:17 PM 41.0 °F 33.5 °F 37.4 °F 87% 29.75 in 10.0 mi West 13.8 mph - N/A   Mostly Cloudy
7:54 PM 41.0 °F 34.7 °F 37.0 °F 86% 29.81 in 10.0 mi West 10.4 mph - N/A   Overcast
8:54 PM 41.0 °F 33.1 °F 36.0 °F 82% 29.83 in 10.0 mi West 15.0 mph - N/A   Overcast
9:28 PM 39.2 °F 30.8 °F 32.0 °F 75% 29.80 in 10.0 mi West 15.0 mph 27.6 mph N/A   Scattered Clouds
9:54 PM 37.9 °F 30.0 °F 32.0 °F 79% 29.85 in 10.0 mi West 12.7 mph - N/A   Scattered Clouds
10:54 PM 36.0 °F 31.1 °F 30.9 °F 82% 29.85 in 10.0 mi West 5.8 mph - N/A   Clear
11:54 PM 35.1 °F 27.9 °F 30.0 °F 82% 29.88 in 10.0 mi WSW 9.2 mph - N/A   Clear